STARLINK-38058, 69757

Orbit data source: Space-Track

STARLINK-38058, 69757 is a payload satellite owned by SpaceX/Seattle (US) in SSO that was launched on Thu, 02 Jul 2026 UTC via an FALCON 9 launch vehicle from the Air Force Western Test Range (AFWTR). Payload-class satellites include a variety of spacecraft equipped with specific instruments for various scientific and technological missions. These include communications satellites like Starlink; space stations such as the ISS; scientific satellites like the Hubble; Earth observation satellites from companies like Planet Labs, Umbra, and HawkEye 360; GPS; miniature CubeSats for education and research; and military/defense satellites.

Loading next visibility...
Identifier
69757, 2026-150U
Orbit
SSO
Country
Flag of USUS
Related business
Manufacturer
SpaceX/Seattle
Mission
Operational spacecraft
Bus & Motor
STARLINK V2MO, Unknown motor
Mass
575 kg wet, ~530 kg dry
Launch date (UTC)
2026-07-02 (3 weeks ago)
Launch vehicle
FALCON 9
Launch site
Air Force Western Test Range (AFWTR)
Object type
Payload
Rocket body
Debris
Shape & HBR
Unknown shape, 17.7 m
Radar Cross Section
Large (>1 m²)

Expand to show TLE details & history
Last TLE update: 16 hours ago

TLE from 16 hours ago
0 STARLINK-38058
1 69757U 26150U   26202.58335648 -.00062428  00000-0 -42025-3 0  9992
2 69757  97.2847  41.3466 0001408  76.5026 231.5295 15.75216060  4325
Epoch: 2026-07-21T14:00Z
TLE epoch observation values (Epoch: 2026-07-21T14:00:01.999Z)
Latitude
-51.65205°
Longitude
-98.7664°
Altitude
364.74 km
Speed
7.689 km/s
True Right ascension
03h 22m 22s
True Declination
-51° 28' 29"
Sunlit
Object was in daylight at epoch
Visualization orbit readout
Latitude
Unknown
Longitude
Unknown
Altitude
Unknown
Speed
Unknown
Apparent Right ascension
Unknown
Apparent Declination
Unknown
Sunlit
N/A
Visualization observer readout
Local Sidereal Time
18:37:02
Azimuth
Unknown
Elevation
Unknown
Doppler factor
Unknown
Orbital elements
Apogee altitude
341.85 km
Perigee altitude
339.958 km
Semi-major axis
6,719.041 km
Eccentricity
0.00014
Inclination
97.2847°
RAAN
41.3466°
Arg. of periapsis
76.5026°
True anomaly
231.51687°
Mean anomaly
231.5295°
Eccentric anomaly
231.52318°
Mean motion
3.94078 °/min
Orbital period
91.35 mins
BSTAR
-0.00042025
Loading maneuver chart data...
Computing Atmospheric mass density...
Loading historical data...
Loading historical data...
Loading historical data...
Loading historical data...
Loading historical data...
Loading historical data...
Loading historical data...

Documentation

Showing up to 5 results
|